PROPCUBE 3

Last updated on Sat Aug 15 2026 00:03:44 GMT+0000 (Coordinated Universal Time)

1 40973U 15058K 26226.56268836 .00001596 00000+0 13953-3 0 9998 2 40973 64.7665 70.0941 0128112 37.5779 323.4201 14.94632050123525
UTC large
Height (km)
Speed (km/s)
/
Latitude / Longitude
Inclination (degrees)
Orbital Period (minutes)
Azimuth
Elevation
Range (km)
Doppler Factor

Next 0 passes for location: London (51.5072 / 0.1276)

No passes found over London.
PROPCUBE 3